Home   Weather   Orange   Past weeks
Flag for USA

Past Weather in Orange, Texas, USA — Yesterday and Last 2 Weeks

Now
81 °F

Overcast.


Feels Like: 88 °F
Forecast: 79 / 62 °F
Wind: 9 mph from South

Location: Orange County Airport

Current Time: Oct 21, 2019 at 3:51:25 am

Latest Report: Oct 21, 2019 at 3:15 am


Visibility: 10 mi

Pressure: 29.75 "Hg

Humidity: 94%

Dew Point: 79 °F

Location of OrangeLocation

Past Weather in Orange — Graph

°F

Orange Temperature Yesterday

Maximum temperature yesterday: 88 °F (at 1:35 pm)
Minimum temperature yesterday: 75 °F (at 6:35 am)
Average temperature yesterday: 81 °F

High & Low Weather Summary for the Past Weeks

 TemperatureHumidityPressure
High92 °F (Oct 6, 3:35 pm)100% (Oct 6, 2:15 am)30.19 "Hg (Oct 6, 2:15 am)
Low55 °F (Oct 11, 8:55 pm)51% (Oct 6, 4:15 pm)29.75 "Hg (Oct 19, 3:35 pm)
Average72 °F88%29.97 "Hg
* Reported Oct 6 2:15 am — Oct 21 2:35 am, Orange. Weather by CustomWeather, © 2019

Note: Actual official high and low records may vary slightly from our data, if they occured in-between our weather recording intervals... More about our weather records

Advertising

Orange Weather History for the Previous 24 Hours

Scroll right to see more
 ConditionsComfort  
Time TempWeatherWind HumidityBarometerVisibility
2:35 am
Mon, Oct 21
80 °FOvercast.9 mph95%29.76 "Hg10 mi
2:15 am80 °FPassing clouds.9 mph96%29.77 "Hg10 mi
1:55 am81 °FPassing clouds.9 mph94%29.77 "Hg10 mi
1:35 am80 °FPassing clouds.9 mph96%29.77 "Hg10 mi
1:15 am80 °FPassing clouds.8 mph94%29.78 "Hg10 mi
12:55 am80 °FClear.10 mph94%29.79 "Hg10 mi
12:35 am80 °FClear.9 mph96%29.79 "Hg10 mi
12:15 am80 °FClear.8 mph96%29.79 "Hg10 mi
11:55 pm
Sun, Oct 20
80 °FClear.9 mph95%29.80 "Hg10 mi
11:35 pm80 °FClear.8 mph95%29.81 "Hg10 mi
11:15 pm80 °FClear.8 mph94%29.81 "Hg10 mi
10:55 pm80 °FClear.12 mph96%29.82 "Hg10 mi
10:35 pm80 °FClear.9 mph97%29.82 "Hg10 mi
9:55 pm80 °FClear.10 mph98%29.82 "Hg10 mi
9:35 pm80 °FClear.9 mph96%29.82 "Hg10 mi
9:15 pm80 °FClear.8 mph97%29.82 "Hg10 mi
8:55 pm80 °FClear.8 mph97%29.82 "Hg10 mi
8:35 pm80 °FClear.8 mph97%29.82 "Hg10 mi
8:15 pm80 °FClear.7 mph98%29.82 "Hg10 mi
7:55 pm80 °FClear.8 mph98%29.82 "Hg10 mi
7:15 pm81 °FClear.6 mph96%29.81 "Hg10 mi
6:55 pm81 °FClear.7 mph93%29.81 "Hg10 mi
6:35 pm82 °FSunny.8 mph91%29.81 "Hg10 mi
6:15 pm83 °FSunny.9 mph88%29.81 "Hg10 mi
5:55 pm83 °FSunny.10 mph84%29.81 "Hg10 mi
5:35 pm84 °FSunny.12 mph83%29.82 "Hg10 mi
5:15 pm85 °FSunny.13 mph80%29.82 "Hg10 mi
4:55 pm86 °FSunny.10 mph80%29.82 "Hg10 mi
4:35 pm86 °FScattered clouds.12 mph78%29.82 "Hg10 mi
3:55 pm87 °FScattered clouds.14 mph77%29.81 "Hg10 mi
3:35 pm87 °FScattered clouds.9 mph77%29.82 "Hg10 mi
3:15 pm88 °FSunny.14 mph75%29.82 "Hg10 mi
2:55 pm88 °FSunny.12 mph75%29.82 "Hg10 mi
2:35 pm87 °FSunny.15 mph75%29.82 "Hg10 mi
2:15 pm88 °FSunny.15 mph76%29.83 "Hg10 mi
1:55 pm88 °FSunny.14 mph76%29.84 "Hg7 mi
1:35 pm88 °FSunny.16 mph75%29.85 "Hg10 mi
1:15 pm87 °FScattered clouds.14 mph79%29.85 "Hg10 mi
12:55 pm87 °FScattered clouds.17 mph78%29.85 "Hg10 mi
12:35 pm87 °FScattered clouds.15 mph80%29.87 "Hg10 mi
12:15 pm86 °FCloudy.13 mph84%29.87 "Hg7 mi
11:55 am84 °FCloudy.9 mph89%29.87 "Hg10 mi
11:35 am84 °FHeavy rain. Cloudy.8 mph86%29.87 "Hg4 mi
11:15 am87 °FCloudy.13 mph78%29.88 "Hg10 mi
10:55 am85 °FCloudy.9 mph82%29.88 "Hg10 mi
10:35 am85 °FMostly cloudy.7 mph84%29.88 "Hg10 mi
10:15 am84 °FPartly sunny.9 mph86%29.88 "Hg10 mi
9:55 am84 °FBroken clouds.10 mph89%29.88 "Hg10 mi
9:35 am83 °FScattered clouds.6 mph92%29.88 "Hg10 mi
9:15 am82 °FSunny.6 mph97%29.87 "Hg10 mi
8:55 am80 °FScattered clouds.5 mph100%29.87 "Hg10 mi
8:35 am79 °FScattered clouds.No wind100%29.86 "Hg10 mi
8:15 am78 °FSunny.5 mph100%29.85 "Hg7 mi
7:55 am77 °FSunny.3 mph100%29.85 "Hg7 mi
7:35 am76 °FSunny.3 mph100%29.85 "Hg7 mi
6:55 am75 °FFog.3 mph100%29.85 "Hg4 mi
6:35 am75 °FFog.No wind100%29.84 "Hg2 mi
6:15 am76 °FClear.No wind100%29.84 "Hg10 mi
5:55 am76 °FClear.3 mph100%29.84 "Hg10 mi
5:35 am75 °FFog.3 mph100%29.83 "Hg3 mi
5:15 am76 °FFog.No wind100%29.82 "Hg4 mi
4:55 am76 °FPartly cloudy.No wind100%29.82 "Hg10 mi
4:35 am77 °FOvercast.No wind100%29.82 "Hg10 mi
3:55 am77 °FPassing clouds.3 mph100%29.81 "Hg10 mi
3:35 am76 °FClear.5 mph100%29.81 "Hg10 mi
Weather by CustomWeather, © 2019

See weather overview